Find Local Weather

World > North America > United States > North Carolina

Raleigh, North Carolina Regional Weather

Lat: 35.82N, Lon: 78.66W
Wx Zone: NCZ041
Warning FLW WEATHER ALERT - WINTER WEATHER ADVISORY (More Info. Click Here) Warning
Feedback
Expires:201812121200;;675228
ASUS42 KRAH 121110
RWRRAH
NORTH CAROLINA WEATHER ROUNDUP
NATIONAL WEATHER SERVICE RALEIGH NC
600 AM EST WED DEC 12 2018

NOTE: "FAIR" INDICATES FEW OR NO CLOUDS BELOW 12,000 FEET WITH NO
SIGNIFICANT WEATHER AND/OR OBSTRUCTIONS TO VISIBILITY.


NCZ021-022-025-041-071-084-088-121200-
CENTRAL NORTH CAROLINA
  
CITY           SKY/WX    TMP DP  RH WIND       PRES   REMARKS
CHARLOTTE      CLOUDY    27  27 100 N3        30.18R                  
GREENSBORO     MOCLDY    27  21  78 SW5       30.17R WCI  22          
WINSTON-SALEM  FAIR      28  20  71 CALM      30.19R                  
RALEIGH-DURHAM MOCLDY    25  22  88 NE3       30.17S                  
FORT BRAGG     FAIR      28  27  99 CALM      30.18S                  
FAYETTEVILLE   FAIR      26  24  92 CALM      30.19R                  
BURLINGTON     FAIR      29  22  75 SW3       30.18R                  
LAURINBURG     FAIR     N/A N/A N/A CALM      30.20R                  
$$
 

SKY/WX - Weather  TMP - Temperature  DP - Dew Point  RH - Relative Humidity
WIND - Wind Direction/Speed PRES - Barometric Pressure